Muskegon, MI

7:15 PM EST on November 20, 2019 (GMT -0500)
Muskegon County

Weather History for KMKG - September, 2019

Change the Weather History Date:

Wednesday, September 25, 2019

  Actual Average Record
Temperature  
Mean Temperature 70 °F 58 °F  
Max Temperature 73 °F 67 °F 89 °F (2017)
Min Temperature 66 °F 49 °F 28 °F (1947)
Degree Days  
Heating Degree Days 0 7  
Month to date heating degree days 21 100  
Since 1 July heating degree days 25 130  
Cooling Degree Days 5 1  
Month to date cooling degree days 82 52  
Year to date cooling degree days 627 559  
Growing Degree Days 20 (Base 50)    
Moisture  
Dew Point 59 °F    
Average Humidity 69    
Maximum Humidity 78    
Minimum Humidity 59    
Precipitation  
Precipitation T in 0.13 in 1.35 in (1961)
Month to date precipitation 4.20 3.26  
Year to date precipitation 31.33 23.84  
Snow  
Snow 0.00 in 0.00 in - ()
Month to date snowfall 0.0 0.0  
Since 1 July snowfall 0.0 0.0  
Since 1 September snowfall 0.0 0.0  
Snow Depth 0.00 in    
Sea Level Pressure  
Sea Level Pressure 29.70 in    
Wind  
Wind Speed 15 mph (SW)    
Max Wind Speed 25 mph    
Max Gust Speed 38 mph    
Visibility 10 miles    
Events Rain    
T = Trace of Precipitation, MM = Missing Value Source: NWS Daily Summary

Daily Weather History Graph

Daily Weather History Graph

Search for Another Location

Airport or City:

Astronomy

Sep. 25, 2019 Rise Set
Actual Time 7:35 AM EDT 7:37 PM EDT
Civil Twilight 7:06 AM EDT 8:05 PM EDT
Nautical Twilight 6:33 AM EDT 8:38 PM EDT
Astronomical Twilight 5:59 AM EDT 9:12 PM EDT
Moon 3:19 AM EDT (9/25) 6:16 PM EDT (9/25)
Length of Visible Light 12h 58m
Length of Day
12h 01m
Waning Crescent, 14% of the Moon is Illuminated
Sep 25
Waning Crescent
Sep 28
New
Oct 5
First Quarter
Oct 13
Full
Oct 21
Last Quarter

Hourly Weather History & Observations

Time (EDT) Temp. Dew Point Humidity Pressure Visibility Wind Dir Wind Speed Gust Speed Precip Events Conditions
12:55 AM 70.0 °F 60.1 °F 71% 29.75 in 10.0 mi SSW 17.3 mph 27.6 mph N/A   Clear
1:55 AM 70.0 °F 60.1 °F 71% 29.75 in 10.0 mi SSW 17.3 mph 31.1 mph N/A   Clear
2:55 AM 69.1 °F 60.1 °F 73% 29.73 in 10.0 mi SSW 16.1 mph 31.1 mph N/A   Clear
3:55 AM 69.1 °F 60.1 °F 73% 29.72 in 10.0 mi South 18.4 mph 29.9 mph N/A   Mostly Cloudy
4:55 AM 70.0 °F 59.0 °F 68% 29.70 in 10.0 mi SSW 18.4 mph 29.9 mph N/A   Overcast
5:55 AM 69.1 °F 59.0 °F 70% 29.67 in 10.0 mi South 17.3 mph 28.8 mph N/A   Mostly Cloudy
6:38 AM 70.0 °F 59.0 °F 68% 29.68 in 10.0 mi SSW 19.6 mph 32.2 mph N/A   Mostly Cloudy
6:55 AM 70.0 °F 57.9 °F 65% 29.67 in 10.0 mi SSW 19.6 mph 33.4 mph N/A   Overcast
7:55 AM 70.0 °F 57.0 °F 63% 29.66 in 10.0 mi SSW 20.7 mph 36.8 mph N/A   Overcast
8:22 AM 70.0 °F 57.0 °F 63% 29.67 in 10.0 mi SSW 18.4 mph 32.2 mph N/A   Overcast
8:55 AM 69.1 °F 57.9 °F 68% 29.68 in 10.0 mi SSW 21.9 mph 34.5 mph N/A   Overcast
9:55 AM 68.0 °F 60.1 °F 76% 29.67 in 10.0 mi SW 17.3 mph 26.5 mph 0.00 in   Overcast
10:55 AM 69.1 °F 60.1 °F 73% 29.68 in 10.0 mi SW 19.6 mph 27.6 mph N/A   Overcast
11:55 AM 69.1 °F 61.0 °F 75% 29.69 in 10.0 mi WSW 12.7 mph 26.5 mph N/A   Overcast
12:55 PM 72.0 °F 62.1 °F 71% 29.69 in 10.0 mi SW 17.3 mph 27.6 mph N/A   Overcast
1:44 PM 72.0 °F 62.1 °F 71% 29.70 in 10.0 mi SW 19.6 mph 27.6 mph N/A   Overcast
1:55 PM 72.0 °F 62.1 °F 71% 29.68 in 10.0 mi SW 21.9 mph 28.8 mph N/A   Mostly Cloudy
2:55 PM 71.1 °F 63.0 °F 75% 29.68 in 10.0 mi SW 16.1 mph - N/A   Mostly Cloudy
3:10 PM 72.0 °F 63.0 °F 73% 29.69 in 10.0 mi SW 15.0 mph - N/A   Mostly Cloudy
3:55 PM 71.1 °F 63.0 °F 75% 29.68 in 10.0 mi SW 15.0 mph - N/A   Mostly Cloudy
4:55 PM 71.1 °F 62.1 °F 73% 29.69 in 10.0 mi SW 17.3 mph 23.0 mph N/A   Scattered Clouds
5:55 PM 70.0 °F 62.1 °F 76% 29.70 in 10.0 mi SW 11.5 mph - N/A   Scattered Clouds
6:55 PM 69.1 °F 62.1 °F 78% 29.72 in 10.0 mi WSW 6.9 mph - N/A   Mostly Cloudy
7:55 PM 68.0 °F 57.9 °F 70% 29.73 in 10.0 mi West 4.6 mph - N/A   Overcast
8:55 PM 66.0 °F 57.0 °F 73% 29.74 in 10.0 mi West 4.6 mph - N/A   Overcast
9:55 PM 68.0 °F 54.0 °F 61% 29.76 in 10.0 mi WNW 6.9 mph - N/A   Overcast
10:55 PM 68.0 °F 53.1 °F 59% 29.77 in 10.0 mi West 6.9 mph - N/A   Mostly Cloudy
11:55 PM 66.9 °F 52.0 °F 59% 29.79 in 10.0 mi West 11.5 mph - 0.00 in Rain Light Rain